Weather History for Panama City Tyndall AFB, FL

Change the Weather History Date:

Sunday, February 24, 2013

  Actual Average Record
Temperature  
Mean Temperature 62 °F -  
Max Temperature 68 °F 65 °F 77 °F (2001)
Min Temperature 56 °F 48 °F 37 °F (2002)
Degree Days  
Heating Degree Days 3    
Growing Degree Days 12 (Base 50)    
Moisture  
Dew Point 61 °F    
Average Humidity 98    
Maximum Humidity 100    
Minimum Humidity 85    
Precipitation  
Precipitation 0.53 in - - ()
Sea Level Pressure  
Sea Level Pressure 29.93 in    
Wind  
Wind Speed 7 mph (ENE)    
Max Wind Speed 12 mph    
Max Gust Speed -    
Visibility 9 miles    
Events Rain , Thunderstorm    
Averages and records for this station are not official NWS values.
T = Trace of Precipitation, MM = Missing Value Source: NWS Daily Summary

Daily Weather History Graph

Daily Weather History Graph

Search for Another Location

Airport:

Trip Planner

Search our weather history database for the weather conditions in past years. The results will help you decide how hot, cold, wet, or windy it might be!

Date:

Astronomy

Feb. 24, 2013 Rise Set
Actual Time 6:13 AM CST 5:38 PM CST
Civil Twilight 5:49 AM CST 6:02 PM CST
Nautical Twilight 5:21 AM CST 6:30 PM CST
Astronomical Twilight 4:53 AM CST 6:57 PM CST
Moon 4:48 PM CST (2/24) 5:08 AM CST (2/24)
Length of Visible Light 12h 13m
Length of Day
11h 24m
Waxing Gibbous, 99% of the Moon is Illuminated
Feb 24
Waxing Gibbous
Feb 25
Full
Mar 4
Last Quarter
Mar 11
New
Mar 19
First Quarter

Hourly Weather History & Observations

Time (CST) Temp. Dew Point Humidity Pressure Visibility Wind Dir Wind Speed Gust Speed Precip Events Conditions
12:53 AM 59.0 °F 59.0 °F 100% 29.94 in 10.0 mi North 8.1 mph - N/A   Overcast
12:58 AM 59.0 °F 59.0 °F 100% 29.94 in 10.0 mi NNE 5.8 mph - N/A   Overcast
1:28 AM 59.0 °F 59.0 °F 100% 29.93 in 10.0 mi North 8.1 mph - N/A   Overcast
1:33 AM 59.0 °F 59.0 °F 100% 29.93 in 10.0 mi North 5.8 mph - N/A   Overcast
1:58 AM 58.3 °F 58.3 °F 100% 29.93 in 10.0 mi North 5.8 mph - N/A   Overcast
2:49 AM 57.2 °F 57.2 °F 100% 29.92 in 10.0 mi North 6.9 mph - N/A   Overcast
2:58 AM 57.4 °F 57.4 °F 100% 29.93 in 10.0 mi Variable 5.8 mph - N/A   Overcast
3:38 AM 57.2 °F 57.2 °F 100% 29.92 in 10.0 mi NNE 5.8 mph - N/A   Overcast
3:43 AM 57.2 °F 57.2 °F 100% 29.91 in 10.0 mi NNE 8.1 mph - N/A   Overcast
3:58 AM 57.2 °F 57.2 °F 100% 29.92 in 10.0 mi NE 6.9 mph - N/A   Overcast
4:58 AM 57.4 °F 57.4 °F 100% 29.94 in 10.0 mi NE 6.9 mph - N/A   Overcast
5:23 AM 57.2 °F 57.2 °F 100% 29.94 in 10.0 mi NE 8.1 mph - N/A   Overcast
5:33 AM 57.2 °F 57.2 °F 100% 29.94 in 10.0 mi NE 10.4 mph - N/A   Overcast
5:58 AM 56.7 °F 56.7 °F 100% 29.96 in 10.0 mi ENE 6.9 mph - N/A   Overcast
6:33 AM 57.2 °F 57.2 °F 100% 29.96 in 10.0 mi ENE 6.9 mph - N/A   Overcast
6:58 AM 56.8 °F 56.8 °F 100% 29.97 in 10.0 mi ENE 8.1 mph - N/A   Overcast
7:58 AM 57.7 °F 57.7 °F 100% 29.98 in 10.0 mi ENE 5.8 mph - N/A   Overcast
8:43 AM 59.0 °F 59.0 °F 100% 29.98 in 10.0 mi NE 6.9 mph - N/A   Scattered Clouds
8:58 AM 60.3 °F 59.9 °F 99% 30.00 in 10.0 mi ENE 8.1 mph - N/A   Scattered Clouds
9:03 AM 60.8 °F 59.0 °F 94% 29.99 in 10.0 mi ENE 9.2 mph - N/A   Mostly Cloudy
9:58 AM 62.2 °F 61.0 °F 96% 30.00 in 10.0 mi ENE 10.4 mph - N/A   Mostly Cloudy
10:08 AM 62.6 °F 60.8 °F 94% 29.99 in 10.0 mi ENE 8.1 mph - N/A   Light Drizzle
10:33 AM 64.4 °F 60.8 °F 88% 29.98 in 10.0 mi East 8.1 mph - N/A   Light Drizzle
10:58 AM 64.6 °F 61.5 °F 90% 29.98 in 10.0 mi NE 8.1 mph - 0.00 in   Light Drizzle
11:13 AM 66.2 °F 62.6 °F 88% 29.96 in 10.0 mi East 8.1 mph - N/A   Light Drizzle
11:38 AM 66.2 °F 62.6 °F 88% 29.96 in 10.0 mi East 6.9 mph - N/A   Light Drizzle
11:58 AM 66.6 °F 62.6 °F 87% 29.97 in 10.0 mi Variable 5.8 mph - 0.00 in   Light Drizzle
12:58 PM 67.8 °F 63.1 °F 85% 29.96 in 10.0 mi East 5.8 mph - 0.00 in   Light Drizzle
1:55 PM 68.0 °F 64.4 °F 88% 29.93 in 10.0 mi East 3.5 mph - N/A Thunderstorm Thunderstorm
1:58 PM 68.0 °F 64.4 °F 88% 29.94 in 10.0 mi East 2.3 mph - 0.00 in Rain , Thunderstorm Light Thunderstorms and Rain
2:10 PM 68.0 °F 64.4 °F 88% 29.92 in 10.0 mi East 2.3 mph - N/A Rain Light Rain
2:53 PM 64.4 °F 64.4 °F 100% 29.92 in 8.0 mi SSE 4.6 mph - N/A Rain , Thunderstorm Light Thunderstorms and Rain
2:57 PM 64.4 °F 64.4 °F 100% 29.92 in 3.0 mi SE 6.9 mph - N/A Rain , Thunderstorm Heavy Thunderstorms and Rain
2:58 PM 64.2 °F 64.2 °F 100% 29.93 in 3.0 mi SE 5.8 mph - 0.04 in Rain , Thunderstorm Heavy Thunderstorms and Rain
3:03 PM 62.6 °F 62.6 °F 100% 29.92 in 2.5 mi ESE 6.9 mph - N/A Rain , Thunderstorm Light Thunderstorms and Rain
3:08 PM 62.6 °F 62.6 °F 100% 29.92 in 6.0 mi ESE 4.6 mph - N/A Rain , Thunderstorm Light Thunderstorms and Rain
3:17 PM 62.6 °F 62.6 °F 100% 29.92 in 10.0 mi ESE 5.8 mph - N/A Rain , Thunderstorm Light Rain
3:56 PM 62.6 °F 62.6 °F 100% 29.93 in 10.0 mi ENE 1.2 mph - N/A Rain , Thunderstorm Light Thunderstorms and Rain
3:58 PM 62.1 °F 62.1 °F 100% 29.94 in 10.0 mi Variable 1.2 mph - 0.05 in Rain , Thunderstorm Light Thunderstorms and Rain
4:08 PM 62.6 °F 62.6 °F 100% 29.92 in 8.0 mi South 10.4 mph - N/A Rain , Thunderstorm Light Thunderstorms and Rain
4:21 PM 62.6 °F 62.6 °F 100% 29.94 in 8.0 mi West 3.5 mph - N/A Rain Light Rain
4:41 PM 62.6 °F 62.6 °F 100% 29.93 in 8.0 mi ESE 5.8 mph - N/A Rain Light Rain
4:58 PM 62.2 °F 62.2 °F 100% 29.94 in 10.0 mi Variable 2.3 mph - 0.05 in   Light Drizzle
5:13 PM 62.6 °F 62.6 °F 100% 29.92 in 10.0 mi East 4.6 mph - N/A   Mostly Cloudy
5:43 PM 62.6 °F 62.6 °F 100% 29.92 in 10.0 mi Variable 4.6 mph - N/A   Light Drizzle
5:58 PM 62.2 °F 62.2 °F 100% 29.92 in 9.0 mi East 5.8 mph - 0.00 in Rain Light Rain
6:00 PM 62.6 °F 62.6 °F 100% 29.91 in 8.0 mi East 6.9 mph - N/A Rain Light Rain
6:25 PM 62.6 °F 62.6 °F 100% 29.92 in 10.0 mi East 5.8 mph - N/A   Mostly Cloudy
6:40 PM 62.6 °F 62.6 °F 100% 29.92 in 10.0 mi ENE 5.8 mph - N/A   Overcast
6:58 PM 62.8 °F 62.8 °F 100% 29.93 in 10.0 mi ENE 4.6 mph - 0.02 in   Overcast
7:43 PM 62.6 °F 62.6 °F 100% 29.91 in 10.0 mi East 4.6 mph - N/A   Mostly Cloudy
7:58 PM 62.6 °F 62.6 °F 100% 29.92 in 10.0 mi ENE 4.6 mph - N/A   Mostly Cloudy
8:23 PM 62.6 °F 62.6 °F 100% 29.91 in 10.0 mi ENE 4.6 mph - N/A   Overcast
8:58 PM 62.2 °F 62.1 °F 99% 29.91 in 10.0 mi ENE 5.8 mph - 0.00 in   Scattered Clouds
9:28 PM 62.6 °F 62.6 °F 100% 29.91 in 10.0 mi ENE 6.9 mph - N/A   Mostly Cloudy
9:43 PM 62.6 °F 62.6 °F 100% 29.90 in 10.0 mi East 6.9 mph - N/A   Overcast
9:58 PM 62.2 °F 62.2 °F 100% 29.91 in 10.0 mi East 6.9 mph - N/A   Overcast
10:58 PM 62.1 °F 62.1 °F 100% 29.88 in 10.0 mi East 8.1 mph - N/A   Overcast
11:04 PM 62.6 °F 62.6 °F 100% 29.87 in 8.0 mi ESE 6.9 mph - N/A Rain , Thunderstorm Light Thunderstorms and Rain
11:09 PM 62.6 °F 62.6 °F 100% 29.88 in 2.5 mi East 6.9 mph - N/A Rain , Thunderstorm Heavy Thunderstorms and Rain
11:14 PM 62.6 °F 62.6 °F 100% 29.87 in 1.2 mi East 9.2 mph - N/A Rain , Thunderstorm Heavy Thunderstorms and Rain
11:19 PM 60.8 °F 60.8 °F 100% 29.86 in 1.2 mi East 11.5 mph - N/A Rain , Thunderstorm Heavy Thunderstorms and Rain
11:24 PM 60.8 °F 60.8 °F 100% 29.86 in 2.5 mi East 9.2 mph - N/A Rain , Thunderstorm Light Thunderstorms and Rain
11:29 PM 62.6 °F 62.6 °F 100% 29.86 in 10.0 mi East 10.4 mph - N/A Thunderstorm Thunderstorm
11:32 PM 62.6 °F 62.6 °F 100% 29.86 in 10.0 mi East 5.8 mph - N/A   Mostly Cloudy
11:52 PM 62.6 °F 62.6 °F 100% 29.86 in 10.0 mi East 4.6 mph - N/A   Overcast
11:58 PM 61.9 °F 61.9 °F 100% 29.87 in 10.0 mi East 5.8 mph - 0.37 in   Overcast